Concordia, KS

2:41 PM CDT on July 23, 2017 (GMT -0500)
Blosser Municipal

Weather History for KCNK - June, 2013

Change the Weather History Date:

Monday, June 3, 2013

  Actual Average Record
Temperature  
Mean Temperature 64 °F 69 °F  
Max Temperature 77 °F 80 °F 94 °F (1958)
Min Temperature 50 °F 58 °F 46 °F (1951)
Degree Days  
Heating Degree Days 1 1  
Month to date heating degree days 12 3  
Since 1 June heating degree days 12 3  
Since 1 July heating degree days 5511 5398  
Cooling Degree Days 0 5  
Month to date cooling degree days 0 15  
Year to date cooling degree days 103 104  
Since 1 June cooling degree days 0 15  
Growing Degree Days 14 (Base 50)    
Moisture  
Dew Point 51 °F    
Average Humidity 66    
Maximum Humidity 89    
Minimum Humidity 43    
Precipitation  
Precipitation 0.00 in 0.13 in 1.78 in (1927)
Month to date precipitation 0.00 0.41  
Year to date precipitation 11.39 10.40  
Snow  
Snow 0.00 in 0.00 in T in (1955)
Month to date snowfall 0.0 0.0  
Year to date snowfall 20.3 13.7  
Since 1 July snowfall 28.8 20.2  
Snow Depth 0.00 in    
Sea Level Pressure  
Sea Level Pressure 29.89 in    
Wind  
Wind Speed 16 mph (SE)    
Max Wind Speed 26 mph    
Max Gust Speed 33 mph    
Visibility 10 miles    
Events      
T = Trace of Precipitation, MM = Missing Value Source: NWS Daily Summary

Daily Weather History Graph

Daily Weather History Graph

Search for Another Location

Airport or City:

Trip Planner

Search our weather history database for the weather conditions in past years. The results will help you decide how hot, cold, wet, or windy it might be!

Date:

Astronomy

Jun. 03, 2013 Rise Set
Actual Time 6:04 AM CDT 8:53 PM CDT
Civil Twilight 5:32 AM CDT 9:25 PM CDT
Nautical Twilight 4:52 AM CDT 10:05 PM CDT
Astronomical Twilight 4:06 AM CDT 10:52 PM CDT
Moon 3:01 AM CDT (6/3) 4:26 PM CDT (6/3)
Length of Visible Light 15h 53m
Length of Day
14h 49m
Waning Crescent, 22% of the Moon is Illuminated
Jun 3
Waning Crescent
Jun 8
New
Jun 16
First Quarter
Jun 23
Full
Jun 29
Last Quarter

Hourly Weather History & Observations

Time (CDT) Temp. Dew Point Humidity Pressure Visibility Wind Dir Wind Speed Gust Speed Precip Events Conditions
12:55 AM 53.1 °F 45.0 °F 74% 29.99 in 10.0 mi SSE 6.9 mph - N/A   Clear
1:55 AM 53.1 °F 46.9 °F 80% 29.99 in 10.0 mi SSE 9.2 mph - N/A   Clear
2:55 AM 53.1 °F 46.9 °F 80% 29.99 in 10.0 mi SE 8.1 mph - N/A   Clear
3:55 AM 51.1 °F 46.9 °F 86% 29.99 in 10.0 mi SE 6.9 mph - N/A   Clear
4:55 AM 52.0 °F 46.9 °F 83% 30.00 in 10.0 mi SSE 9.2 mph - N/A   Clear
5:55 AM 51.1 °F 46.9 °F 86% 29.99 in 10.0 mi SE 9.2 mph - N/A   Clear
6:55 AM 51.1 °F 48.0 °F 89% 29.99 in 10.0 mi SE 8.1 mph - N/A   Clear
7:55 AM 55.9 °F 48.9 °F 77% 29.99 in 10.0 mi SSE 15.0 mph 21.9 mph N/A   Clear
8:55 AM 59.0 °F 50.0 °F 72% 29.98 in 10.0 mi SSE 18.4 mph - N/A   Clear
9:55 AM 62.1 °F 51.1 °F 67% 29.96 in 10.0 mi SSE 18.4 mph - N/A   Clear
10:55 AM 66.0 °F 52.0 °F 60% 29.93 in 10.0 mi SSE 18.4 mph - N/A   Clear
11:55 AM 69.1 °F 51.1 °F 53% 29.91 in 10.0 mi SSE 17.3 mph 27.6 mph N/A   Clear
12:55 PM 71.1 °F 52.0 °F 51% 29.88 in 10.0 mi SE 21.9 mph 29.9 mph N/A   Clear
1:55 PM 73.9 °F 50.0 °F 43% 29.84 in 10.0 mi SE 25.3 mph 31.1 mph N/A   Clear
2:55 PM 75.9 °F 51.1 °F 42% 29.81 in 10.0 mi SSE 23.0 mph 31.1 mph N/A   Clear
3:55 PM 77.0 °F 53.1 °F 43% 29.79 in 10.0 mi SSE 20.7 mph 29.9 mph N/A   Clear
4:55 PM 75.9 °F 53.1 °F 45% 29.78 in 10.0 mi SSE 23.0 mph 28.8 mph N/A   Clear
5:55 PM 75.9 °F 55.0 °F 48% 29.76 in 10.0 mi SSE 19.6 mph 28.8 mph N/A   Clear
6:55 PM 75.9 °F 55.0 °F 48% 29.75 in 10.0 mi SSE 16.1 mph 31.1 mph N/A   Clear
7:55 PM 73.0 °F 55.9 °F 55% 29.76 in 10.0 mi SE 12.7 mph - N/A   Clear
8:55 PM 70.0 °F 55.9 °F 61% 29.77 in 10.0 mi SE 15.0 mph - N/A   Clear
9:55 PM 66.9 °F 57.0 °F 70% 29.78 in 10.0 mi East 9.2 mph - N/A   Clear
10:55 PM 66.9 °F 57.0 °F 70% 29.81 in 10.0 mi SE 13.8 mph - N/A   Clear
11:55 PM 66.0 °F 57.0 °F 73% 29.77 in 10.0 mi SE 18.4 mph - N/A   Clear